Weather History for KCLS - January, 2014

Change the Weather History Date:

Thursday, January 30, 2014

  Actual Average (KOLM) Record (KOLM)
Temperature  
Mean Temperature 44 °F 40 °F  
Max Temperature 50 °F 48 °F 56 °F (1960)
Min Temperature 39 °F 33 °F 6 °F (1950)
Degree Days  
Heating Degree Days 20 25  
Month to date heating degree days 760  
Since 1 July heating degree days 3030  
Cooling Degree Days 0 0  
Month to date cooling degree days 0  
Year to date cooling degree days 0  
Moisture  
Dew Point 39 °F    
Average Humidity 88    
Maximum Humidity 100    
Minimum Humidity 62    
Precipitation  
Precipitation 0.23 in 0.24 in 1.08 in (1952)
Month to date precipitation 7.61  
Year to date precipitation 7.61  
Sea Level Pressure  
Sea Level Pressure 29.94 in    
Wind  
Wind Speed 7 mph (SSW)    
Max Wind Speed 12 mph    
Max Gust Speed 23 mph    
Visibility 9 miles    
Events Rain    
T = Trace of Precipitation, MM = Missing Value Source: NWS Daily Summary

Daily Weather History Graph

Daily Weather History Graph

Search for Another Location

Airport or City:

Trip Planner

Search our weather history database for the weather conditions in past years. The results will help you decide how hot, cold, wet, or windy it might be!

Date:

Astronomy

Jan. 30, 2014 Rise Set
Actual Time 7:38 AM PST 5:12 PM PST
Civil Twilight 7:05 AM PST 5:45 PM PST
Nautical Twilight 6:29 AM PST 6:21 PM PST
Astronomical Twilight 5:53 AM PST 6:57 PM PST
Moon 7:05 AM PST 5:35 PM PST
Length of Visible Light 10h 39m
Length of Day
9h 34m
Waning Crescent, 0% of the Moon is Illuminated
Jan 30
Waning Crescent
Jan 30
New
Feb 6
First Quarter
Feb 14
Full
Feb 22
Last Quarter

Hourly Weather History & Observations

Time (PST) Temp. Windchill Dew Point Humidity Pressure Visibility Wind Dir Wind Speed Gust Speed Precip Events Conditions
12:15 AM 44.6 °F 40.2 °F 41.0 °F 87% 29.91 in 4.0 mi SSW 8.1 mph - N/A   Overcast
12:35 AM 44.6 °F 40.2 °F 41.0 °F 87% 29.91 in 10.0 mi SW 8.1 mph - N/A   Overcast
12:55 AM 44.6 °F 39.2 °F 41.0 °F 87% 29.91 in 10.0 mi SSW 10.4 mph 16.1 mph N/A   Overcast
1:15 AM 44.6 °F 40.7 °F 41.0 °F 87% 29.91 in 10.0 mi SSW 6.9 mph - N/A   Overcast
1:35 AM 44.6 °F 40.2 °F 41.0 °F 87% 29.91 in 4.0 mi SSW 8.1 mph - N/A   Overcast
1:55 AM 44.6 °F 39.7 °F 41.0 °F 87% 29.91 in 8.0 mi SSW 9.2 mph - N/A   Overcast
2:15 AM 44.6 °F 39.7 °F 41.0 °F 87% 29.92 in 10.0 mi SSW 9.2 mph - N/A   Overcast
2:35 AM 44.6 °F 40.7 °F 41.0 °F 87% 29.92 in 10.0 mi SSW 6.9 mph - N/A   Overcast
2:55 AM 44.6 °F 40.7 °F 39.2 °F 81% 29.92 in 10.0 mi SW 6.9 mph - N/A   Overcast
3:15 AM 44.6 °F 39.7 °F 39.2 °F 81% 29.92 in 10.0 mi SSW 9.2 mph - N/A   Overcast
3:35 AM 44.6 °F 41.4 °F 39.2 °F 81% 29.93 in 10.0 mi SSW 5.8 mph - N/A   Overcast
3:55 AM 44.6 °F 42.2 °F 39.2 °F 81% 29.93 in 8.0 mi SW 4.6 mph - N/A   Overcast
4:15 AM 42.8 °F 40.1 °F 39.2 °F 87% 29.93 in 6.0 mi SW 4.6 mph - N/A Rain Light Rain
4:35 AM 42.8 °F 39.3 °F 39.2 °F 87% 29.93 in 10.0 mi SSW 5.8 mph - N/A   Overcast
4:55 AM 42.8 °F 39.3 °F 39.2 °F 87% 29.93 in 10.0 mi SSW 5.8 mph - N/A   Overcast
5:15 AM 42.8 °F 39.3 °F 39.2 °F 87% 29.93 in 9.0 mi SSW 5.8 mph - N/A   Overcast
5:35 AM 42.8 °F 40.1 °F 39.2 °F 87% 29.93 in 8.0 mi SW 4.6 mph - N/A   Overcast
5:55 AM 42.8 °F 39.3 °F 39.2 °F 87% 29.93 in 7.0 mi South 5.8 mph - N/A   Overcast
6:15 AM 41.0 °F 36.4 °F 39.2 °F 93% 29.92 in 10.0 mi South 6.9 mph - N/A   Overcast
6:35 AM 41.0 °F 35.8 °F 39.2 °F 93% 29.92 in 10.0 mi South 8.1 mph - N/A   Mostly Cloudy
6:55 AM 41.0 °F 38.0 °F 39.2 °F 93% 29.92 in 9.0 mi SSW 4.6 mph - N/A   Partly Cloudy
7:15 AM 41.0 °F 36.4 °F 39.2 °F 93% 29.93 in 7.0 mi South 6.9 mph - N/A   Partly Cloudy
7:35 AM 41.0 °F 36.4 °F 37.4 °F 87% 29.93 in 9.0 mi South 6.9 mph - N/A   Scattered Clouds
7:55 AM 41.0 °F 37.1 °F 37.4 °F 87% 29.94 in 9.0 mi SSW 5.8 mph - N/A   Mostly Cloudy
8:15 AM 41.0 °F 37.1 °F 37.4 °F 87% 29.94 in 10.0 mi South 5.8 mph - N/A   Mostly Cloudy
8:35 AM 42.8 °F 38.0 °F 37.4 °F 81% 29.95 in 10.0 mi SSW 8.1 mph - N/A   Overcast
8:55 AM 44.6 °F 40.7 °F 37.4 °F 76% 29.95 in 10.0 mi SW 6.9 mph - N/A   Overcast
9:15 AM 44.6 °F 41.4 °F 37.4 °F 76% 29.96 in 5.0 mi SSW 5.8 mph - N/A   Haze
9:35 AM 44.6 °F 41.4 °F 37.4 °F 76% 29.96 in 5.0 mi South 5.8 mph - N/A   Haze
9:55 AM 44.6 °F 39.7 °F 39.2 °F 81% 29.96 in 10.0 mi South 9.2 mph - N/A   Overcast
10:15 AM 46.4 °F 41.9 °F 39.2 °F 76% 29.96 in 10.0 mi South 9.2 mph - N/A   Overcast
10:35 AM 46.4 °F 41.9 °F 37.4 °F 71% 29.96 in 10.0 mi South 9.2 mph - N/A   Overcast
10:55 AM 46.4 °F 41.5 °F 37.4 °F 71% 29.96 in 10.0 mi South 10.4 mph - N/A   Overcast
11:15 AM 48.2 °F - 37.4 °F 66% 29.95 in 9.0 mi SW 10.4 mph 17.3 mph N/A   Overcast
11:35 AM 46.4 °F 41.1 °F 37.4 °F 71% 29.95 in 10.0 mi SW 11.5 mph 16.1 mph N/A   Overcast
11:55 AM 46.4 °F 41.9 °F 39.2 °F 76% 29.94 in 5.0 mi SSW 9.2 mph - N/A   Haze
12:15 PM 48.2 °F - 39.2 °F 71% 29.93 in 9.0 mi SW 8.1 mph - N/A   Clear
12:35 PM 50.0 °F - 37.4 °F 62% 29.92 in 10.0 mi SW 11.5 mph 16.1 mph N/A   Scattered Clouds
12:55 PM 46.4 °F 41.9 °F 39.2 °F 76% 29.93 in 3.0 mi West 9.2 mph 21.9 mph 0.01 in Rain Light Rain
1:15 PM 46.4 °F 42.9 °F 39.2 °F 76% 29.92 in 8.0 mi WSW 6.9 mph 17.3 mph N/A   Partly Cloudy
1:35 PM 46.4 °F 41.5 °F 39.2 °F 76% 29.92 in 5.0 mi SW 10.4 mph 17.3 mph N/A   Haze
1:55 PM 46.4 °F 42.9 °F 39.2 °F 76% 29.91 in 8.0 mi SW 6.9 mph - N/A   Scattered Clouds
2:15 PM 42.8 °F 38.6 °F 37.4 °F 81% 29.93 in 3.0 mi NW 6.9 mph 23.0 mph 0.01 in Rain Light Rain
2:35 PM 39.2 °F 35.0 °F 37.4 °F 93% 29.91 in 4.0 mi NNW 5.8 mph - 0.05 in Rain Light Rain
2:55 PM 39.2 °F 37.0 °F 39.2 °F 100% 29.92 in 3.0 mi West 3.5 mph - 0.10 in Rain Rain
3:15 PM 39.2 °F 37.0 °F 39.2 °F 100% 29.94 in 3.0 mi West 3.5 mph - 0.06 in Rain Rain
3:35 PM 39.2 °F 35.0 °F 37.4 °F 93% 29.94 in 2.5 mi WSW 5.8 mph - 0.10 in Rain Rain
3:55 PM 39.2 °F 32.5 °F 37.4 °F 93% 29.93 in 10.0 mi SSW 10.4 mph - 0.10 in   Partly Cloudy
4:15 PM 39.2 °F 34.2 °F 37.4 °F 93% 29.93 in 10.0 mi SSW 6.9 mph - 0.01 in   Mostly Cloudy
4:35 PM 39.2 °F 35.9 °F 37.4 °F 93% 29.93 in 10.0 mi SSW 4.6 mph - 0.01 in   Overcast
4:55 PM 39.2 °F 37.0 °F 37.4 °F 93% 29.93 in 10.0 mi South 3.5 mph - 0.01 in   Mostly Cloudy
5:15 PM 39.2 °F 35.9 °F 37.4 °F 93% 29.94 in 10.0 mi South 4.6 mph - N/A   Overcast
5:35 PM 39.2 °F 35.9 °F 37.4 °F 93% 29.93 in 10.0 mi SSW 4.6 mph - N/A   Overcast
5:55 PM 39.2 °F 35.9 °F 39.2 °F 100% 29.93 in 10.0 mi SSW 4.6 mph - N/A   Mostly Cloudy
6:15 PM 39.2 °F 35.0 °F 39.2 °F 100% 29.94 in 10.0 mi SSW 5.8 mph - N/A   Overcast
6:35 PM 39.2 °F 35.0 °F 39.2 °F 100% 29.94 in 10.0 mi South 5.8 mph - N/A   Overcast
6:55 PM 39.2 °F 35.0 °F 39.2 °F 100% 29.94 in 8.0 mi SSW 5.8 mph - N/A Rain Light Rain
7:15 PM 39.2 °F 35.0 °F 39.2 °F 100% 29.94 in 10.0 mi South 5.8 mph - 0.01 in Rain Light Rain
7:35 PM 39.2 °F 34.2 °F 39.2 °F 100% 29.94 in 10.0 mi South 6.9 mph - 0.01 in   Overcast
7:55 PM 39.2 °F 33.6 °F 39.2 °F 100% 29.94 in 10.0 mi South 8.1 mph - 0.01 in   Overcast
8:15 PM 39.2 °F 35.0 °F 39.2 °F 100% 29.95 in 10.0 mi South 5.8 mph - N/A   Overcast
8:35 PM 39.2 °F 33.0 °F 39.2 °F 100% 29.95 in 10.0 mi South 9.2 mph - N/A   Overcast
8:55 PM 39.2 °F 33.6 °F 39.2 °F 100% 29.95 in 10.0 mi South 8.1 mph - N/A   Overcast
9:15 PM 39.2 °F 33.6 °F 39.2 °F 100% 29.95 in 10.0 mi South 8.1 mph - N/A   Overcast
9:35 PM 39.2 °F 33.6 °F 39.2 °F 100% 29.95 in 10.0 mi SSE 8.1 mph - N/A   Overcast
9:55 PM 39.2 °F 33.6 °F 39.2 °F 100% 29.96 in 10.0 mi South 8.1 mph - N/A   Overcast
10:15 PM 39.2 °F 33.6 °F 39.2 °F 100% 29.96 in 10.0 mi South 8.1 mph - N/A   Overcast
10:35 PM 39.2 °F 33.6 °F 39.2 °F 100% 29.96 in 10.0 mi South 8.1 mph - N/A   Overcast
10:55 PM 39.2 °F 33.6 °F 39.2 °F 100% 29.96 in 10.0 mi South 8.1 mph - N/A   Overcast
11:15 PM 39.2 °F 34.2 °F 39.2 °F 100% 29.96 in 10.0 mi South 6.9 mph - N/A   Overcast
11:35 PM 39.2 °F 34.2 °F 39.2 °F 100% 29.96 in 10.0 mi South 6.9 mph - N/A   Overcast
11:55 PM 39.2 °F 35.0 °F 39.2 °F 100% 29.96 in 10.0 mi South 5.8 mph - N/A   Overcast